Flag for Canada Weather past 2 weeks in Markham, Ontario, Canada

Now
79 °F

Sprinkles. Overcast.


Feels Like: 81 °F
Forecast: 68 / 84 °F
Wind: 7 mph from West

Location: Toronto Buttonville

Current Time: Jul 30, 2015 at 3:10:07 AM

Latest Report: Jul 30, 2015 at 2:00 AM


Visibility: 12 mi

Pressure: 29.79 "Hg

Humidity: 70%

Dew point: 68 °F

Location of MarkhamLocation

Historic Weather in Markham — Graph

°F

Markham temperature yesterday

Maximum temperature yesterday: 91 °F (at 4:00 PM)
Minimum temperature yesterday: 68 °F (at 5:00 AM)
Average temperature yesterday: 80 °F

Past Weeks' High & Low Weather Summary

 TemperatureHumidityPressure
High91 °F (Jul 27, 4:00 PM)100% (Jul 18, 4:48 AM)30.14 "Hg (Jul 18, 4:48 AM)
Low52 °F (Jul 15, 6:00 AM)32% (Jul 23, 3:00 PM)29.61 "Hg (Jul 21, 3:00 AM)
Average73 °F62%29.89 "Hg
* Reported Jul 15 1:00 AM — Jul 30 1:00 AM, Markham, Weather by CustomWeather, © 2015

Note: Actual official high and low records may vary slightly from our data, if they occured in-between our weather recording intervals... More about our weather records

Advertising

Markham weather history for previous 24 hours

 ConditionsComfort  
Time TempWeatherWind HumidityBarometerVisibility
1:00 AM
Thu, Jul 30
81 °FPartly cloudy.8 mph62%29.80 "Hg12 mi
12:00 AM81 °FPassing clouds.8 mph58%29.81 "Hg12 mi
11:00 PM
Wed, Jul 29
82 °FPassing clouds.6 mph51%29.82 "Hg12 mi
10:00 PM82 °FPartly cloudy.7 mph48%29.83 "Hg12 mi
9:00 PM82 °FBroken clouds.7 mph58%29.83 "Hg12 mi
8:00 PM84 °FPartly sunny.10 mph51%29.83 "Hg12 mi
7:00 PM86 °FBroken clouds.9 mph49%29.84 "Hg15 mi
6:00 PM88 °FBroken clouds.13 mph40%29.85 "Hg15 mi
5:00 PM90 °FPassing clouds.15 mph38%29.85 "Hg15 mi
4:00 PM91 °FBroken clouds.10 mph38%29.88 "Hg15 mi
3:00 PM90 °FBroken clouds.15 mph36%29.90 "Hg15 mi
2:00 PM90 °FPartly sunny.14 mph36%29.91 "Hg15 mi
1:00 PM90 °FPartly sunny.10 mph38%29.92 "Hg14 mi
12:00 PM90 °FPassing clouds.5 mph36%29.95 "Hg12 mi
11:00 AM84 °FPartly sunny.3 mph51%29.96 "Hg12 mi
10:00 AM82 °FBroken clouds.2 mph55%29.96 "Hg15 mi
9:00 AM77 °FBroken clouds.No wind57%29.97 "Hg15 mi
8:00 AM73 °FBroken clouds.2 mph65%29.97 "Hg15 mi
7:00 AM70 °FPartly cloudy.No wind73%29.96 "Hg15 mi
6:00 AM68 °FPartly cloudy.3 mph73%29.96 "Hg15 mi
5:00 AM68 °FPassing clouds.No wind73%29.97 "Hg15 mi
4:00 AM70 °FPassing clouds.No wind69%29.97 "Hg15 mi
3:00 AM70 °FPassing clouds.3 mph73%29.98 "Hg15 mi
Weather by CustomWeather, © 2015

See weather overviewHow to use our weather pages